Vertical_Velocity
-3 -3 -3 -2 -4 0 -3 -4 -0 -4 -2 4 -1 0 -2 -0 -0 -2 18 -16 12 -0 -1 -2 -1 0 1 0 -1 0 -1 -2 -2 1 0 -1 -0 0 3 -1 -0 -1 1 4 1
-0 -0 -2 -2 -1 -3 -3 -7 -5 2 1 1 1 -0 -1 -3 -2 5 -2 -9 5 1 1 -2 -3 -1 1 -1 -1 -0 1 -1 -3 1 -2 0 -0 1 3 -0 -1 0 -1 0 -1
-3 1 -3 -0 -2 -3 -3 -4 -0 2 3 4 -0 2 -3 -4 -5 46 -16 -3 3 5 -2 -0 -1 -0 1 -2 3 5 5 -2 1 0 -1 -1 1 2 -0 1 -2 -2 1 1 1
-0 -7 -1 -5 -6 -4 -11 -4 -1 2 2 3 3 4 -2 -4 -24 6 -0 6 -1 -3 0 -1 2 -1 2 4 -3 3 0 -2 -0 1 -0 -2 -3 4 1 -1 1 0 1 2 2
-2 -8 -3 -3 -2 -1 -6 -5 1 -0 1 4 1 7 -1 -16 -3 8 4 -1 -1 -4 1 2 1 -2 5 3 -6 3 2 -4 -1 -1 1 -1 2 -4 3 1 -2 -1 -2 -2 2
-2 -1 -9 -0 -4 0 -5 0 1 0 -1 2 2 3 -6 -43 30 -9 4 3 5 6 -4 -1 14 6 -10 -1 -9 14 -2 -3 -5 0 -0 0 -2 -2 -1 0 3 0 -0 -1 -0
-1 -2 -4 -3 -3 1 -3 -5 3 0 -2 -2 2 2 -17 1 19 9 -4 10 -0 5 3 5 0 -5 11 -2 -2 0 0 -9 -2 1 3 1 -6 14 -2 -1 0 2 1 2 -1
-4 -4 -5 -4 -5 -0 0 1 -0 1 -1 -1 4 -5 -37 6 8 13 -6 7 8 3 11 1 -3 -0 1 -2 -0 -5 -0 -12 8 2 5 -7 19 1 -0 -8 0 1 2 2 1
-6 -4 -2 -3 -4 -4 -0 -2 2 1 2 0 -1 -5 -17 3 -15 43 -1 14 3 7 12 5 -11 -4 -0 -0 -4 -12 2 -3 -4 4 -1 -11 18 0 -4 -0 -2 1 1 1 1
-7 -5 -8 -4 -2 -3 -1 -2 -2 1 4 2 -6 -8 -1 9 11 12 -7 13 3 9 5 -12 -5 -3 -9 -21 -20 3 6 16 6 2 -2 -6 10 -1 -0 -6 -0 -0 -1 3 3
-0 0 -2 -6 -4 -5 1 0 -4 -8 0 4 -3 -10 -1 -6 7 8 0 8 7 2 -23 1 -8 -36 13 6 7 8 3 2 4 1 -13 -2 -7 1 1 -9 -1 1 -0 -1 3
-3 -2 -3 1 -5 -5 -6 -2 -1 -10 -6 -4 9 -10 2 -10 -0 14 5 -13 -5 -36 25 -3 -61 23 10 -1 10 4 -1 1 4 -0 -10 -1 -0 4 -9 1 1 -3 1 2 1
-4 -3 -1 1 1 -4 -4 -2 0 -7 -21 23 -1 -4 16 -19 6 10 6 8 -6 14 6 -15 33 9 8 4 -4 -0 -13 8 12 2 -7 1 -8 -3 6 -3 -1 -0 1 -1 2
-3 -1 -7 2 3 -5 -7 -0 -1 -3 -20 15 -2 -3 14 8 -19 30 10 6 11 -11 1 -11 40 4 8 -4 8 -17 19 9 7 -0 -8 -3 -8 -14 -5 1 -6 3 1 -0 -1
-1 3 -5 -6 7 -5 -0 2 1 0 -35 -5 1 2 7 -6 42 -10 31 22 0 -1 10 -65 -2 1 -5 -12 12 11 1 13 12 -3 9 -15 -26 19 -10 1 8 11 -4 -1 -2
-1 5 -7 3 1 -3 5 -0 0 -1 -20 2 11 -5 -5 -3 -5 16 7 15 7 14 5 8 22 5 -6 25 8 24 11 4 8 -2 -37 13 -22 -0 -8 15 10 -3 -1 -2 -1
-3 4 -7 -7 10 3 -1 -1 0 -10 0 3 -4 4 -1 5 -1 3 -2 -6 -18 -9 -3 -1 -19 -3 14 12 13 8 10 -4 -5 -15 -53 6 -17 17 8 11 10 -2 -5 -0 -1
-3 -3 -2 -5 5 -2 0 3 -4 3 1 21 -1 1 3 3 12 17 -0 39 -12 0 2 -1 1 -5 -15 -32 -13 -16 12 9 -14 -18 4 2 -52 -10 11 18 -4 -4 0 -2 3
4 3 -9 10 1 -1 1 3 -3 -1 3 -1 2 8 8 10 4 0 -7 9 33 9 3 -3 -24 6 0 19 10 -23 -20 4 9 -3 -10 -2 -9 -4 1 7 1 6 -2 3 -0
3 7 -9 4 3 -2 -0 2 -7 -3 -2 -6 -2 -1 -1 10 17 11 -7 -4 14 19 26 19 -9 1 16 14 14 -6 43 11 7 -31 -23 -10 -8 -10 3 6 1 6 4 1 -2
1 9 -5 -3 -2 -5 4 2 1 -6 -2 1 10 -1 1 0 8 20 -5 -2 -5 -3 13 -2 2 20 34 -4 2 -11 -7 -12 10 3 -14 -4 -18 14 2 3 7 3 3 0 3
-1 2 3 -2 -1 -5 -3 4 -3 -0 -3 3 1 -4 3 0 -7 -1 23 9 5 5 0 32 -4 -11 -16 15 15 10 9 25 34 -36 -28 -7 -31 -6 -1 -3 -1 0 -1 -1 1
-1 13 -5 2 -2 2 -2 3 -10 2 0 2 0 -2 3 1 -11 -1 5 33 21 11 -1 22 -14 -9 4 16 4 -4 14 7 7 39 -22 8 -29 11 1 2 6 5 2 -0 0
8 1 4 -6 -1 -1 -1 3 -7 -1 3 -3 2 -3 2 3 4 8 13 0 17 10 -3 5 11 -38 -25 -26 0 -12 -14 -14 -8 25 -9 -19 17 -1 6 0 0 3 1 0 -1
6 0 4 -0 4 -0 -4 4 -2 -0 2 2 2 -0 -1 0 -4 3 4 -1 10 11 21 10 -14 -22 15 -9 -1 -6 1 16 4 -21 -2 -21 -14 11 12 7 5 -1 -4 -2 0
-5 -5 1 0 8 -4 -3 14 -0 6 2 6 -0 -1 -7 3 -6 5 0 8 5 11 15 8 11 -4 -22 10 1 -4 8 6 3 4 -9 9 -29 10 7 -5 -0 2 -1 -1 1
1 1 -3 3 2 -5 15 -2 2 1 8 2 -1 -2 -3 -6 -5 3 -0 0 6 8 10 11 8 -5 -23 9 18 1 -32 -20 -7 6 -24 6 16 9 7 9 4 2 -1 1 3
Height
5761 5758 5755 5752 5750 5747 5745 5742 5741 5741 5742 5744 5746 5748 5750 5753 5759 5765 5773 5771 5779 5781 5788 5790 5794 5797 5800 5802 5805 5807 5811 5812 5813 5815 5816 5816 5818 5820 5823 5825 5826 5829 5830 5834 5836
5749 5745 5743 5740 5736 5732 5730 5728 5724 5724 5725 5727 5731 5734 5736 5740 5746 5755 5758 5760 5768 5771 5776 5781 5784 5789 5793 5795 5799 5802 5806 5808 5810 5812 5814 5815 5817 5818 5822 5824 5825 5828 5830 5833 5835
5737 5733 5730 5726 5722 5717 5712 5708 5707 5705 5708 5710 5714 5719 5721 5726 5733 5747 5743 5749 5758 5761 5765 5771 5775 5782 5785 5787 5793 5798 5802 5801 5804 5808 5810 5812 5814 5817 5819 5822 5824 5826 5829 5831 5833
5726 5721 5716 5713 5708 5700 5694 5689 5687 5688 5690 5693 5697 5700 5704 5709 5719 5732 5732 5738 5744 5747 5754 5759 5765 5772 5776 5780 5786 5790 5791 5794 5799 5802 5806 5808 5810 5814 5817 5820 5822 5825 5827 5830 5832
5715 5709 5703 5699 5693 5685 5678 5673 5671 5671 5672 5675 5678 5682 5685 5691 5709 5722 5723 5726 5732 5735 5742 5746 5752 5759 5765 5770 5775 5781 5783 5786 5791 5795 5799 5803 5807 5809 5814 5817 5819 5822 5824 5827 5829
5702 5696 5692 5686 5679 5669 5662 5659 5656 5655 5656 5656 5660 5663 5665 5676 5704 5706 5711 5716 5719 5725 5727 5735 5742 5747 5753 5759 5763 5773 5774 5777 5780 5786 5791 5796 5801 5804 5808 5811 5815 5818 5820 5823 5826
5690 5684 5678 5672 5665 5654 5648 5644 5641 5639 5639 5639 5642 5645 5647 5677 5692 5696 5699 5705 5709 5713 5716 5719 5725 5732 5741 5747 5752 5761 5763 5766 5772 5779 5784 5789 5791 5801 5801 5803 5809 5813 5815 5818 5820
5677 5671 5665 5657 5649 5639 5633 5630 5627 5624 5623 5622 5623 5626 5635 5662 5671 5680 5684 5691 5697 5701 5705 5705 5710 5720 5728 5734 5740 5749 5754 5757 5765 5772 5777 5779 5789 5795 5792 5795 5801 5806 5809 5812 5815
5664 5657 5650 5643 5634 5623 5617 5615 5612 5610 5607 5606 5607 5609 5628 5643 5654 5670 5667 5680 5681 5689 5692 5693 5697 5710 5717 5723 5729 5737 5744 5750 5758 5762 5768 5770 5782 5785 5785 5787 5794 5798 5801 5805 5808
5650 5643 5637 5631 5620 5609 5602 5598 5597 5595 5592 5591 5592 5596 5618 5632 5639 5648 5652 5660 5666 5671 5677 5683 5684 5691 5705 5709 5718 5729 5734 5741 5751 5754 5757 5760 5771 5777 5775 5778 5787 5790 5794 5799 5802
5637 5629 5622 5614 5606 5596 5590 5584 5582 5579 5577 5576 5578 5587 5597 5608 5616 5627 5633 5639 5646 5649 5662 5672 5669 5678 5700 5708 5717 5720 5727 5734 5741 5744 5745 5747 5753 5766 5766 5769 5779 5785 5788 5791 5795
5623 5616 5609 5602 5591 5581 5573 5569 5565 5561 5562 5561 5563 5572 5582 5589 5597 5611 5616 5620 5630 5643 5656 5652 5659 5682 5690 5693 5700 5707 5714 5723 5730 5733 5731 5735 5744 5758 5758 5762 5769 5776 5780 5784 5787
5611 5603 5597 5589 5577 5568 5560 5557 5550 5543 5542 5553 5550 5558 5570 5563 5582 5597 5603 5615 5624 5635 5634 5643 5673 5672 5676 5680 5687 5696 5705 5714 5720 5721 5720 5726 5731 5745 5749 5753 5763 5767 5771 5774 5779
5597 5589 5582 5575 5566 5555 5546 5545 5538 5531 5524 5539 5539 5543 5552 5555 5556 5581 5588 5602 5605 5618 5631 5635 5654 5656 5660 5670 5679 5687 5701 5703 5705 5707 5709 5711 5715 5731 5740 5743 5751 5757 5761 5765 5768
5585 5577 5570 5560 5556 5541 5537 5530 5527 5521 5515 5526 5527 5529 5532 5538 5562 5568 5583 5585 5592 5607 5609 5624 5642 5644 5647 5664 5671 5681 5687 5689 5691 5694 5696 5702 5701 5723 5729 5734 5743 5752 5752 5755 5758
5572 5563 5557 5547 5538 5532 5526 5520 5514 5512 5511 5513 5513 5513 5520 5529 5542 5552 5559 5570 5584 5592 5595 5618 5623 5625 5642 5655 5662 5669 5675 5676 5676 5678 5674 5694 5695 5700 5720 5730 5738 5741 5743 5746 5750
5562 5552 5545 5534 5530 5519 5512 5508 5504 5502 5502 5501 5499 5506 5512 5520 5530 5539 5546 5554 5564 5572 5578 5598 5603 5618 5628 5636 5645 5651 5658 5658 5659 5658 5666 5686 5683 5691 5709 5721 5730 5733 5735 5737 5740
5549 5541 5533 5522 5517 5507 5501 5497 5492 5491 5488 5490 5488 5495 5505 5510 5519 5527 5537 5550 5554 5566 5577 5585 5591 5603 5611 5622 5636 5641 5646 5642 5647 5654 5666 5672 5664 5684 5697 5712 5718 5722 5726 5728 5730
5536 5527 5520 5511 5503 5497 5491 5486 5480 5477 5475 5473 5477 5486 5494 5504 5508 5513 5522 5537 5543 5553 5563 5572 5580 5595 5605 5617 5623 5627 5627 5649 5645 5646 5654 5658 5665 5678 5686 5699 5704 5709 5713 5717 5719
5525 5515 5505 5497 5491 5487 5480 5476 5470 5466 5462 5462 5466 5473 5483 5488 5496 5501 5506 5523 5531 5537 5552 5564 5575 5581 5596 5601 5606 5611 5635 5626 5630 5636 5643 5646 5652 5664 5680 5688 5695 5699 5703 5706 5709
5513 5503 5492 5483 5480 5475 5471 5467 5462 5458 5455 5455 5458 5463 5473 5481 5482 5489 5494 5511 5521 5534 5541 5551 5559 5573 5581 5577 5590 5601 5606 5615 5628 5630 5633 5640 5645 5663 5670 5679 5685 5690 5693 5696 5699
5501 5491 5481 5474 5471 5462 5461 5458 5456 5453 5450 5450 5451 5455 5462 5470 5472 5481 5489 5496 5508 5512 5522 5537 5543 5550 5554 5575 5587 5596 5604 5608 5606 5617 5627 5630 5636 5652 5662 5669 5674 5681 5684 5686 5690
5486 5480 5470 5465 5461 5454 5450 5449 5447 5447 5446 5445 5445 5449 5454 5459 5465 5472 5479 5488 5493 5501 5512 5525 5523 5536 5545 5554 5562 5569 5583 5593 5604 5615 5610 5623 5634 5647 5653 5660 5665 5669 5675 5679 5681
5473 5470 5463 5452 5449 5445 5442 5440 5438 5439 5439 5439 5440 5442 5444 5449 5456 5461 5469 5473 5480 5490 5498 5501 5510 5520 5529 5544 5561 5565 5573 5582 5592 5595 5607 5608 5630 5633 5642 5649 5655 5661 5666 5670 5673
5463 5459 5454 5448 5440 5435 5433 5433 5430 5430 5430 5433 5433 5435 5436 5440 5444 5449 5454 5464 5475 5485 5488 5489 5498 5511 5525 5536 5546 5555 5565 5578 5576 5589 5593 5613 5619 5625 5635 5642 5647 5652 5655 5657 5661
5449 5448 5445 5441 5432 5427 5424 5425 5423 5424 5422 5425 5426 5427 5429 5432 5434 5439 5443 5456 5464 5473 5475 5478 5491 5502 5510 5525 5533 5540 5550 5561 5568 5582 5588 5601 5606 5616 5625 5631 5635 5640 5643 5647 5652
5438 5435 5431 5431 5425 5420 5417 5414 5414 5414 5414 5416 5418 5420 5424 5424 5426 5429 5435 5443 5453 5463 5467 5474 5485 5491 5502 5515 5522 5520 5535 5548 5561 5573 5585 5588 5604 5608 5612 5617 5625 5630 5635 5641 5645